TimeCDT,TemperatureF,Dew PointF,Humidity,Sea Level PressureIn,VisibilityMPH,Wind Direction,Wind SpeedMPH,Gust SpeedMPH,PrecipitationIn,Events,Conditions,WindDirDegrees,DateUTC
12:56 AM,64.9,64.0,97,29.79,6.0,East,3.5,-,N/A,,Clear,80,2013-09-01 05:56:00
1:12 AM,64.4,64.4,100,29.80,5.0,ESE,6.9,-,N/A,,Partly Cloudy,110,2013-09-01 06:12:00
1:34 AM,66.2,66.2,100,29.78,2.5,ESE,5.8,-,N/A,,Mostly Cloudy,120,2013-09-01 06:34:00
1:39 AM,66.2,66.2,100,29.78,0.8,Calm,Calm,-,N/A,,Mist,0,2013-09-01 06:39:00
1:56 AM,66.0,64.9,96,29.74,1.2,East,3.5,-,N/A,,Overcast,80,2013-09-01 06:56:00
2:04 AM,66.2,66.2,100,29.78,3.0,North,6.9,-,N/A,,Mostly Cloudy,360,2013-09-01 07:04:00
2:19 AM,66.2,66.2,100,29.78,4.0,North,3.5,-,N/A,,Partly Cloudy,10,2013-09-01 07:19:00
2:56 AM,66.9,64.9,93,29.76,5.0,Calm,Calm,-,N/A,,Clear,0,2013-09-01 07:56:00
3:56 AM,64.9,64.0,97,29.77,2.5,Calm,Calm,-,N/A,,Clear,0,2013-09-01 08:56:00
4:04 AM,64.4,64.4,100,29.79,4.0,Calm,Calm,-,N/A,,Clear,0,2013-09-01 09:04:00
4:56 AM,64.0,63.0,96,29.78,4.0,Calm,Calm,-,N/A,,Scattered Clouds,0,2013-09-01 09:56:00
5:06 AM,64.4,64.4,100,29.80,4.0,Calm,Calm,-,N/A,,Mostly Cloudy,0,2013-09-01 10:06:00
5:39 AM,64.4,64.4,100,29.78,4.0,East,4.6,-,N/A,,Scattered Clouds,100,2013-09-01 10:39:00
5:47 AM,64.4,64.4,100,29.79,4.0,East,3.5,-,N/A,,Scattered Clouds,90,2013-09-01 10:47:00
5:56 AM,66.0,64.9,96,29.77,4.0,Calm,Calm,-,N/A,,Scattered Clouds,0,2013-09-01 10:56:00
6:04 AM,66.2,66.2,100,29.79,5.0,Calm,Calm,-,N/A,,Mostly Cloudy,0,2013-09-01 11:04:00
6:22 AM,66.2,64.4,94,29.79,5.0,Calm,Calm,-,N/A,,Mostly Cloudy,0,2013-09-01 11:22:00
6:56 AM,66.0,64.0,93,29.76,2.5,Calm,Calm,-,N/A,,Partly Cloudy,0,2013-09-01 11:56:00
7:12 AM,66.2,64.4,94,29.77,2.5,East,3.5,-,N/A,,Mostly Cloudy,100,2013-09-01 12:12:00
7:37 AM,69.8,66.2,88,29.78,2.5,Calm,Calm,-,N/A,,Overcast,0,2013-09-01 12:37:00
7:44 AM,69.8,66.2,88,29.79,3.0,Calm,Calm,-,N/A,,Overcast,0,2013-09-01 12:44:00
7:56 AM,69.1,66.9,93,29.77,3.0,Calm,Calm,-,N/A,,Overcast,0,2013-09-01 12:56:00
8:56 AM,71.1,69.1,93,29.78,3.0,West,3.5,-,N/A,,Overcast,260,2013-09-01 13:56:00
9:56 AM,73.0,70.0,90,29.77,3.0,WSW,5.8,-,N/A,,Overcast,250,2013-09-01 14:56:00
10:26 AM,73.4,69.8,88,29.79,3.0,West,3.5,-,N/A,,Overcast,270,2013-09-01 15:26:00
10:56 AM,75.0,71.1,87,29.75,4.0,West,5.8,-,N/A,,Overcast,280,2013-09-01 15:56:00
11:19 AM,75.2,71.6,89,29.77,4.0,WNW,6.9,-,N/A,,Haze,290,2013-09-01 16:19:00
11:56 AM,75.9,70.0,82,29.74,4.0,WNW,8.1,-,N/A,,Haze,290,2013-09-01 16:56:00
12:56 PM,81.0,71.1,72,29.73,6.0,NW,4.6,-,N/A,,Haze,310,2013-09-01 17:56:00
1:08 PM,82.4,71.6,70,29.75,6.0,WNW,5.8,-,N/A,,Haze,290,2013-09-01 18:08:00
1:56 PM,82.9,71.1,67,29.72,8.0,NW,12.7,17.3,N/A,,Scattered Clouds,310,2013-09-01 18:56:00
2:56 PM,84.9,66.9,55,29.72,10.0,NW,15.0,-,N/A,,Clear,310,2013-09-01 19:56:00
3:56 PM,84.9,61.0,44,29.73,10.0,WNW,13.8,-,N/A,,Scattered Clouds,300,2013-09-01 20:56:00
4:56 PM,84.0,62.1,47,29.74,10.0,NW,11.5,20.7,N/A,,Partly Cloudy,310,2013-09-01 21:56:00
5:56 PM,81.0,59.0,47,29.76,10.0,NW,12.7,-,N/A,,Clear,310,2013-09-01 22:56:00
6:56 PM,78.1,59.0,52,29.78,10.0,NW,10.4,-,N/A,,Clear,320,2013-09-01 23:56:00
7:56 PM,73.0,59.0,61,29.80,10.0,NW,4.6,-,N/A,,Clear,310,2013-09-02 00:56:00
8:56 PM,70.0,59.0,68,29.82,10.0,NW,4.6,-,N/A,,Clear,310,2013-09-02 01:56:00
9:56 PM,68.0,60.1,76,29.83,10.0,WNW,4.6,-,N/A,,Clear,290,2013-09-02 02:56:00
10:56 PM,64.9,60.1,84,29.85,10.0,West,3.5,-,N/A,,Clear,260,2013-09-02 03:56:00
11:56 PM,63.0,60.1,90,29.86,10.0,Calm,Calm,-,N/A,,Clear,0,2013-09-02 04:56:00